Weather History for KMFI - March, 2013

Change the Weather History Date:

Sunday, March 31, 2013

  Actual Average Record
Temperature  
Mean Temperature 33 °F -  
Max Temperature 36 °F 48 °F 80 °F (1986)
Min Temperature 28 °F 26 °F -5 °F (1923)
Degree Days  
Heating Degree Days 32    
Moisture  
Dew Point 29 °F    
Average Humidity 86    
Maximum Humidity 100    
Minimum Humidity 48    
Precipitation  
Precipitation 0.00 in - - ()
Sea Level Pressure  
Sea Level Pressure 29.75 in    
Wind  
Wind Speed 11 mph (WNW)    
Max Wind Speed 25 mph    
Max Gust Speed 33 mph    
Visibility 4 miles    
Events Fog , Snow    
Averages and records for this station are not official NWS values.
T = Trace of Precipitation, MM = Missing Value Source: NWS Daily Summary

Daily Weather History Graph

Daily Weather History Graph

Search for Another Location

Airport or City:

Trip Planner

Search our weather history database for the weather conditions in past years. The results will help you decide how hot, cold, wet, or windy it might be!

Date:

Astronomy

Mar. 31, 2013 Rise Set
Actual Time 6:43 AM CDT 7:27 PM CDT
Civil Twilight 6:13 AM CDT 7:56 PM CDT
Nautical Twilight 5:38 AM CDT 8:31 PM CDT
Astronomical Twilight 5:02 AM CDT 9:08 PM CDT
Moon No Moon Rise 9:20 AM CDT (3/31)
Length of Visible Light 13h 43m
Length of Day
12h 44m
Waning Gibbous, 77% of the Moon is Illuminated
Mar 31
Waning Gibbous
Apr 2
Last Quarter
Apr 10
New
Apr 18
First Quarter
Apr 25
Full

Hourly Weather History & Observations

Time (CDT) Temp. Windchill Dew Point Humidity Pressure Visibility Wind Dir Wind Speed Gust Speed Precip Events Conditions
12:54 AM 34.0 °F 28.8 °F 33.1 °F 96% 29.82 in 1.8 mi West 5.8 mph - N/A   Partly Cloudy
1:04 AM 33.8 °F 27.7 °F 33.8 °F 100% 29.77 in 0.8 mi West 6.9 mph - N/A   Mist
1:54 AM 34.0 °F 28.0 °F 33.1 °F 96% 29.80 in 0.2 mi West 6.9 mph - N/A Fog Fog
2:54 AM 34.0 °F 26.0 °F 33.1 °F 96% 29.78 in 0.2 mi West 10.4 mph - N/A Fog Fog
3:54 AM 33.1 °F 24.9 °F 33.1 °F 100% 29.77 in 0.5 mi WNW 10.4 mph - N/A Fog Fog
4:27 AM 33.8 °F 25.3 °F 33.8 °F 100% 29.72 in 1.2 mi WNW 11.5 mph - N/A   Overcast
4:54 AM 33.1 °F 24.9 °F 33.1 °F 100% 29.76 in 2.0 mi West 10.4 mph - N/A   Overcast
5:18 AM 33.8 °F 25.8 °F 32.0 °F 93% 29.71 in 3.0 mi West 10.4 mph - N/A   Overcast
5:50 AM 32.0 °F 27.5 °F 32.0 °F 100% 29.70 in 2.5 mi West 4.6 mph - N/A   Mostly Cloudy
5:54 AM 32.0 °F 24.8 °F 30.9 °F 96% 29.74 in 2.5 mi West 8.1 mph - N/A   Mostly Cloudy
6:33 AM 32.0 °F 23.6 °F 30.2 °F 93% 29.70 in 3.0 mi West 10.4 mph - N/A   Overcast
6:50 AM 30.2 °F 23.4 °F 30.2 °F 100% 29.71 in 2.0 mi WNW 6.9 mph - N/A   Mostly Cloudy
6:54 AM 30.9 °F 23.5 °F 30.0 °F 96% 29.74 in 1.8 mi WNW 8.1 mph - N/A   Mostly Cloudy
7:01 AM 30.2 °F 23.4 °F 30.2 °F 100% 29.70 in 1.8 mi West 6.9 mph - N/A   Scattered Clouds
7:10 AM 30.2 °F 23.4 °F 30.2 °F 100% 29.70 in 1.8 mi West 6.9 mph - N/A   Mostly Cloudy
7:54 AM 30.9 °F 23.5 °F 30.0 °F 96% 29.75 in 1.8 mi West 8.1 mph - N/A   Overcast
8:01 AM 30.2 °F 22.6 °F 30.2 °F 100% 29.71 in 2.0 mi West 8.1 mph - N/A   Overcast
8:27 AM 32.0 °F 24.2 °F 30.2 °F 93% 29.70 in 2.0 mi West 9.2 mph - N/A   Overcast
8:54 AM 32.0 °F 24.2 °F 30.0 °F 92% 29.74 in 3.0 mi West 9.2 mph - N/A   Mostly Cloudy
9:12 AM 33.8 °F 26.4 °F 30.2 °F 87% 29.69 in 3.0 mi West 9.2 mph - N/A   Scattered Clouds
9:54 AM 33.1 °F 24.9 °F 30.0 °F 89% 29.73 in 4.0 mi West 10.4 mph - N/A   Mostly Cloudy
10:18 AM 33.8 °F 23.5 °F 30.2 °F 87% 29.69 in 4.0 mi West 16.1 mph 21.9 mph N/A   Mostly Cloudy
10:54 AM 33.1 °F 23.4 °F 28.9 °F 85% 29.74 in 4.0 mi West 13.8 mph 19.6 mph N/A   Overcast
11:54 AM 33.1 °F 23.0 °F 28.9 °F 85% 29.75 in 4.0 mi WNW 15.0 mph 23.0 mph N/A   Overcast
12:54 PM 34.0 °F 24.6 °F 30.0 °F 85% 29.75 in 3.0 mi West 13.8 mph 20.7 mph N/A   Overcast
1:44 PM 35.6 °F 27.1 °F 28.4 °F 75% 29.71 in 9.0 mi WNW 12.7 mph 23.0 mph 0.00 in   Overcast
1:54 PM 36.0 °F 27.1 °F 30.0 °F 79% 29.75 in 10.0 mi West 13.8 mph 20.7 mph 0.00 in   Mostly Cloudy
2:35 PM 35.6 °F 27.5 °F 28.4 °F 75% 29.70 in 10.0 mi West 11.5 mph - N/A   Mostly Cloudy
2:44 PM 33.8 °F 21.6 °F 28.4 °F 81% 29.71 in 1.8 mi NW 23.0 mph 28.8 mph 0.00 in Snow Light Snow
2:47 PM 33.8 °F 21.0 °F 28.4 °F 81% 29.72 in 0.8 mi NW 25.3 mph 33.4 mph 0.00 in Snow Light Snow
2:54 PM 32.0 °F 20.1 °F 30.0 °F 92% 29.76 in 0.5 mi NW 19.6 mph 33.4 mph 0.00 in Fog , Snow Snow
3:00 PM 33.8 °F 22.8 °F 30.2 °F 87% 29.72 in 1.2 mi NW 18.4 mph 24.2 mph 0.00 in Snow Light Snow
3:04 PM 33.8 °F 23.5 °F 30.2 °F 87% 29.72 in 3.0 mi NW 16.1 mph 24.2 mph 0.00 in Snow Light Snow
3:13 PM 35.6 °F 25.9 °F 28.4 °F 75% 29.72 in 9.0 mi NW 16.1 mph - 0.00 in   Mostly Cloudy
3:54 PM 36.0 °F 24.4 °F 26.1 °F 67% 29.76 in 10.0 mi NW 23.0 mph 31.1 mph 0.00 in   Scattered Clouds
4:54 PM 36.0 °F 23.9 °F 18.0 °F 48% 29.78 in 10.0 mi NNW 25.3 mph 31.1 mph N/A   Scattered Clouds
5:54 PM 34.0 °F 21.8 °F 17.1 °F 50% 29.81 in 10.0 mi NW 23.0 mph 31.1 mph N/A   Partly Cloudy
6:54 PM 32.0 °F 20.1 °F 16.0 °F 52% 29.84 in 10.0 mi NW 19.6 mph 26.5 mph N/A   Clear
7:54 PM 30.9 °F 20.2 °F 17.1 °F 57% 29.88 in 10.0 mi NW 15.0 mph - N/A   Overcast
8:54 PM 28.9 °F 18.6 °F 16.0 °F 58% 29.90 in 10.0 mi NNW 12.7 mph - N/A   Overcast